Montreal/Mirabel, Ontario

2:21 AM EST on December 03, 2016 (GMT -0500)
Montreal International (Mirabel)

Weather History for CYMX - November, 2012

Change the Weather History Date:

Wednesday, November 14, 2012

  Actual Average Record
Temperature  
Mean Temperature 31 °F -  
Max Temperature 41 °F 37 °F 62 °F (2011)
Min Temperature 21 °F 25 °F 6 °F (1996)
Degree Days  
Heating Degree Days 34    
Moisture  
Dew Point 21 °F    
Average Humidity 70    
Maximum Humidity 93    
Minimum Humidity 42    
Precipitation  
Precipitation 0.00 in - - ()
Sea Level Pressure  
Sea Level Pressure 30.61 in    
Wind  
Wind Speed 2 mph ()    
Max Wind Speed 6 mph    
Max Gust Speed -    
Averages and records for this station are not official NWS values.
T = Trace of Precipitation, MM = Missing Value Source: Averaged Metar Reports

Daily Weather History Graph

Daily Weather History Graph

Search for Another Location

Airport or City:

Trip Planner

Search our weather history database for the weather conditions in past years. The results will help you decide how hot, cold, wet, or windy it might be!

Date:

Astronomy

Nov. 14, 2012 Rise Set
Actual Time 6:54 AM EST 4:25 PM EST
Civil Twilight 6:22 AM EST 4:58 PM EST
Nautical Twilight 5:46 AM EST 5:34 PM EST
Astronomical Twilight 5:11 AM EST 6:09 PM EST
Moon 7:44 AM EST (11/14) 5:08 PM EST (11/14)
Length of Visible Light 10h 35m
Length of Day
9h 30m
New Moon, 1% of the Moon is Illuminated
Nov 14
New Moon
Nov 20
First Quarter
Nov 28
Full
Dec 6
Last Quarter
Dec 13
New

Hourly Weather History & Observations

Time (EST) Temp. Windchill Dew Point Humidity Pressure Visibility Wind Dir Wind Speed Gust Speed Precip Events Conditions
12:00 AM 24.8 °F - 19.4 °F 80% 30.53 in 25.0 mi WNW 2.3 mph - N/A   Clear
1:00 AM 24.8 °F - 21.2 °F 86% 30.54 in 25.0 mi West 2.3 mph - N/A   Clear
2:00 AM 23.0 °F - 19.4 °F 86% 30.56 in 25.0 mi Calm Calm - N/A   Clear
3:00 AM 23.0 °F - 19.4 °F 86% 30.56 in 25.0 mi Calm Calm - N/A   Clear
4:00 AM 23.0 °F - 19.4 °F 86% 30.57 in 25.0 mi Calm Calm - N/A   Clear
5:00 AM 21.2 °F - 19.4 °F 93% 30.59 in 25.0 mi ESE 2.3 mph - N/A   Clear
6:00 AM 23.0 °F - 19.4 °F 86% 30.61 in 25.0 mi Calm Calm - N/A   Clear
7:00 AM 21.2 °F - 19.4 °F 93% 30.64 in 25.0 mi Calm Calm - N/A   Clear
8:00 AM 26.6 °F 22.6 °F 21.2 °F 80% 30.65 in 25.0 mi NNE 3.5 mph - N/A   Clear
9:00 AM 30.2 °F 26.7 °F 23.0 °F 75% 30.66 in 25.0 mi NE 3.5 mph - N/A   Clear
10:00 AM 35.6 °F 31.7 °F 26.6 °F 70% 30.67 in 40.0 mi ENE 4.6 mph - N/A   Partly Cloudy
11:00 AM 39.2 °F 35.9 °F 19.4 °F 45% 30.66 in 45.0 mi NE 4.6 mph - N/A   Partly Cloudy
12:00 PM 39.2 °F 35.0 °F 21.2 °F 49% 30.64 in 45.0 mi East 5.8 mph - N/A   Partly Cloudy
1:00 PM 41.0 °F 38.0 °F 19.4 °F 42% 30.62 in 45.0 mi SE 4.6 mph - N/A   Partly Cloudy
2:00 PM 41.0 °F 38.0 °F 19.4 °F 42% 30.61 in 45.0 mi ENE 4.6 mph - N/A   Partly Cloudy
3:00 PM 39.2 °F 35.9 °F 21.2 °F 49% 30.61 in 45.0 mi ESE 4.6 mph - N/A   Partly Cloudy
4:00 PM 37.4 °F 34.9 °F 21.2 °F 52% 30.61 in 45.0 mi East 3.5 mph - N/A   Partly Cloudy
5:00 PM 35.6 °F - 19.4 °F 52% 30.61 in 25.0 mi Calm Calm - N/A   Scattered Clouds
6:00 PM 32.0 °F - 19.4 °F 60% 30.62 in 25.0 mi Calm Calm - N/A   Scattered Clouds
7:00 PM 28.4 °F 24.6 °F 19.4 °F 69% 30.63 in 25.0 mi North 3.5 mph - N/A   Partly Cloudy
8:00 PM 28.4 °F 23.3 °F 21.2 °F 74% 30.63 in 25.0 mi NNE 4.6 mph - N/A   Partly Cloudy
9:00 PM 28.4 °F 23.3 °F 21.2 °F 74% 30.62 in 25.0 mi North 4.6 mph - N/A   Clear
10:00 PM 28.4 °F - 21.2 °F 74% 30.61 in 25.0 mi North 2.3 mph - N/A   Clear
11:00 PM 26.6 °F - 21.2 °F 80% 30.61 in 25.0 mi Calm Calm - N/A   Clear